Simultaneous Nadir Overpasses (SNOs) Predictions

Prediction of SNOs between TERRA and METOP-C Satellite Orbit:

Table of predicted SNOs for the next 14.0 days since TLE Epoch: 12/18/2021
Index Date (TERRA) Time (TERRA) Lat,Lon (TERRA) SZA (TERRA ) Date (METOP-C) Time (METOP-C) Lat,Lon (METOP-C) SZA (METOP-C ) Distance(km) Time Diff (sec)
1 12/20/2021 12:45:30 81.22, 32.11 106.96 12/20/2021 12:45:06 81.22, 32.30 106.97 3.22 24
2 12/20/2021 13:34:57 -81.22,-160.35 73.06 12/20/2021 13:35:46 -81.22,-160.43 73.04 1.43 49
3 12/23/2021 08:19:42 81.21, 98.33 106.89 12/23/2021 08:19:31 81.21, 98.18 106.87 2.62 11
4 12/23/2021 09:09:08 -81.23, -93.73 73.07 12/23/2021 09:10:09 -81.23, -93.78 73.05 0.72 61
5 12/26/2021 03:04:27 -81.19, -3.18 73.27 12/26/2021 03:03:13 -81.20, -3.19 73.29 0.84 74
6 12/26/2021 03:53:52 81.21, 164.87 106.80 12/26/2021 03:53:53 81.21, 164.79 106.79 1.32 1
7 12/26/2021 04:43:18 -81.23, -27.17 73.16 12/26/2021 04:44:31 -81.23, -27.14 73.13 0.58 73
8 12/28/2021 22:38:38 -81.19, 63.33 73.42 12/28/2021 22:37:36 -81.20, 63.42 73.43 1.67 62
9 12/28/2021 23:28:03 81.22,-128.65 106.64 12/28/2021 23:28:16 81.22,-128.63 106.65 0.34 13
10 12/31/2021 18:12:49 -81.19, 129.79 73.64 12/31/2021 18:12:00 -81.20, 129.62 73.68 2.98 49



Historial Predications of SNOs between TERRA and METOP-C
